CAPE
0 0 0 0 0 0 0 0 0 0 0 0 0 0 0 0 0 0 0 0 0 0 0 0 0 260 346 324 66 0 1 0 0 12 42 355 396 733 652 338 344 392 330 234 590
0 0 0 0 0 0 0 0 0 0 0 0 0 0 0 0 0 0 0 0 0 0 0 0 0 0 0 0 0 30 0 0 0 7 16 217 556 701 649 356 351 439 577 663 713
1 0 0 0 0 0 0 0 0 0 0 0 0 0 0 0 0 0 0 0 0 0 0 0 0 0 0 0 0 7 0 0 0 0 117 156 486 673 431 173 305 363 537 721 681
0 0 0 0 0 0 0 0 0 0 0 0 0 0 0 0 0 0 0 0 0 0 0 0 0 0 0 0 0 0 0 0 0 0 89 149 434 312 274 65 266 549 632 723 679
1 0 0 0 0 0 0 0 0 0 0 0 0 0 0 0 0 0 0 0 0 0 0 0 0 0 0 0 0 0 0 0 0 0 76 236 129 267 208 149 494 645 721 676 647
1 0 0 0 0 0 0 0 0 0 0 0 0 0 0 0 0 0 0 0 0 0 0 0 0 0 0 0 0 0 0 0 0 0 23 114 167 142 162 385 529 647 614 671 754
2 1 0 0 0 0 0 0 0 0 0 0 0 0 0 0 0 0 0 0 0 0 0 0 0 0 0 0 0 0 0 6 3 0 0 136 47 61 313 526 373 450 597 663 786
1 1 0 0 0 0 0 0 0 0 0 0 0 0 0 0 0 0 0 0 0 0 0 0 0 0 0 0 0 0 0 0 7 0 21 14 7 153 417 444 299 306 492 521 661
1 0 0 0 0 0 0 0 0 0 0 0 0 0 0 0 0 0 0 0 0 0 0 0 0 0 0 0 0 0 0 1 10 0 5 12 25 145 350 436 433 340 302 458 615
0 0 0 0 0 0 0 0 0 0 0 0 0 0 0 0 0 0 0 0 0 0 0 0 0 0 0 0 0 0 0 2 29 17 39 29 79 190 367 438 449 506 501 554 733
0 0 0 0 0 0 0 0 0 0 0 0 0 0 0 0 0 0 0 0 0 0 0 0 0 0 0 0 0 0 1 35 50 44 38 59 54 158 263 325 360 561 692 599 591
0 0 0 0 0 0 0 0 0 0 0 0 0 0 0 0 0 0 0 0 0 0 0 0 0 0 0 0 0 0 0 35 19 42 48 44 49 88 226 230 267 329 511 608 599
0 0 0 0 0 0 0 0 0 0 0 0 0 0 0 0 0 0 0 0 0 0 0 0 0 0 0 0 0 0 0 16 12 21 40 51 9 21 114 266 239 230 258 302 354
0 0 0 0 0 0 0 0 0 0 0 0 0 0 0 0 0 0 0 0 0 0 0 0 0 0 0 0 0 0 0 35 39 27 0 35 2 30 86 118 226 234 221 205 202
0 0 0 3 0 0 0 0 0 0 0 0 0 0 0 0 0 0 0 0 0 0 0 0 0 0 0 0 0 0 0 0 26 46 9 9 1 0 14 42 76 185 268 207 164
0 0 0 0 0 0 0 0 0 0 0 0 0 0 0 0 0 0 0 0 0 0 0 0 0 0 0 0 0 0 0 0 0 5 0 0 0 0 0 29 65 127 201 206 163
0 0 0 0 0 0 0 0 0 0 0 0 0 0 0 0 0 0 0 0 0 0 0 0 0 0 0 0 0 0 0 0 0 0 0 0 0 0 0 9 30 73 109 139 144
0 0 0 0 0 0 0 0 0 0 0 0 0 0 0 0 0 0 0 0 0 0 0 0 0 0 0 0 0 0 0 0 0 0 0 0 0 0 0 14 33 86 110 126 132
0 0 0 0 0 0 0 0 0 0 0 0 0 0 0 0 0 0 0 0 0 0 0 0 0 0 0 0 0 0 0 0 0 0 0 0 0 0 0 0 0 13 62 91 159
0 0 0 0 0 0 0 0 0 0 0 0 0 0 0 0 0 0 0 0 0 0 0 0 0 0 0 0 0 0 0 0 0 0 0 0 0 0 0 0 0 0 8 59 140
0 0 0 0 0 0 0 0 0 0 0 0 0 0 0 0 0 0 0 0 0 0 0 0 0 0 0 0 0 0 0 0 0 0 0 0 0 0 0 0 0 0 0 12 98
0 0 0 0 0 0 0 0 0 0 0 0 0 0 0 0 0 0 0 0 0 0 0 0 0 0 0 0 0 0 0 0 0 0 0 0 0 0 0 0 0 0 0 0 7
0 0 0 0 0 0 0 0 0 0 0 0 0 0 0 0 0 0 0 0 0 0 0 0 0 0 0 0 0 0 0 0 0 0 0 0 0 0 0 0 0 0 0 0 0
0 0 0 0 0 0 0 0 0 0 0 0 0 0 0 0 0 0 0 0 0 0 0 0 0 0 0 0 0 0 0 0 0 0 0 0 0 0 0 0 0 0 0 0 1
0 0 1 0 0 0 0 0 0 0 0 0 0 0 0 0 0 0 0 0 0 0 0 0 0 0 0 0 0 0 0 0 0 0 0 0 0 0 0 0 0 0 0 1 17
4 2 1 1 0 0 0 0 0 0 0 0 0 0 0 0 0 0 0 0 0 0 5 0 0 0 0 0 0 0 0 0 0 0 0 0 0 0 0 0 0 0 4 1 31
0 3 5 0 0 0 0 0 0 0 0 0 0 0 0 0 0 0 0 0 0 1 34 30 1 0 0 0 0 0 0 0 0 0 0 0 0 0 0 0 0 0 0 2 83
CIN
-0 -0 -0 -0 -0 -0 -0 -0 -0 -0 -0 -0 -0 -0 -0 -0 -0 -0 -0 -0 -0 -0 -0 -0 -0 -345 -342 -190 -246 -0 -20 -8 -0 -30 -47 -113 -99 -85 -91 -118 -119 -100 -106 -157 -127
-0 -0 -0 -0 -0 -0 -0 -0 -0 -0 -0 -0 -0 -0 -0 -0 -0 -0 -0 -0 -0 -0 -0 -0 -0 -0 -0 -0 -0 -114 -2 -0 -0 -52 -47 -87 -90 -108 -112 -132 -134 -118 -136 -126 -114
-0 -0 -0 -0 -0 -0 -0 -0 -0 -0 -0 -0 -0 -0 -0 -0 -0 -0 -0 -0 -0 -0 -0 -0 -0 -0 -0 -0 -0 -113 -0 -0 -0 -0 -70 -72 -98 -113 -129 -147 -148 -153 -177 -147 -147
-0 -0 -0 -0 -0 -0 -0 -0 -0 -0 -0 -0 -0 -0 -0 -0 -0 -0 -0 -0 -0 -0 -0 -0 -0 -0 -0 -0 -0 -0 -0 -0 -0 -12 -83 -74 -92 -133 -119 -118 -148 -144 -158 -162 -165
-0 -0 -0 -0 -0 -0 -0 -0 -0 -0 -0 -0 -0 -0 -0 -0 -0 -0 -0 -0 -0 -0 -0 -0 -0 -0 -0 -0 -0 -0 -0 -0 -0 -0 -97 -108 -83 -87 -113 -160 -162 -187 -180 -176 -171
-0 -0 -0 -0 -0 -0 -0 -0 -0 -0 -0 -0 -0 -0 -0 -0 -0 -0 -0 -0 -0 -0 -0 -0 -0 -0 -0 -0 -0 -0 -0 -0 -0 -0 -115 -97 -116 -98 -125 -185 -198 -222 -225 -187 -164
-0 -0 -0 -0 -0 -0 -0 -0 -0 -0 -0 -0 -0 -0 -0 -0 -0 -0 -0 -0 -0 -0 -0 -0 -0 -0 -0 -0 -0 -0 -0 -140 -161 -0 -3 -128 -119 -89 -129 -166 -197 -222 -230 -198 -165
-0 -0 -0 -0 -0 -0 -0 -0 -0 -0 -0 -0 -0 -0 -0 -0 -0 -0 -0 -0 -0 -0 -0 -0 -0 -0 -0 -0 -0 -0 -0 -0 -142 -0 -216 -63 -49 -117 -156 -141 -164 -212 -236 -222 -184
-0 -0 -0 -0 -0 -0 -0 -0 -0 -0 -0 -0 -0 -0 -0 -0 -0 -0 -0 -0 -0 -0 -0 -0 -0 -0 -0 -0 -0 -0 -0 -11 -87 -0 -82 -116 -63 -151 -176 -142 -144 -199 -210 -206 -175
-0 -0 -0 -0 -0 -0 -0 -0 -0 -0 -0 -0 -0 -0 -0 -0 -0 -0 -0 -0 -0 -0 -0 -0 -0 -0 -0 -0 -0 -0 -0 -21 -39 -166 -183 -143 -114 -178 -203 -162 -137 -157 -174 -172 -164
-0 -0 -0 -0 -0 -0 -0 -0 -0 -0 -0 -0 -0 -0 -0 -0 -0 -0 -0 -0 -0 -0 -0 -0 -0 -0 -0 -0 -0 -0 -5 -38 -89 -174 -140 -154 -138 -157 -193 -195 -185 -159 -156 -157 -159
-0 -0 -0 -0 -0 -0 -0 -0 -0 -0 -0 -0 -0 -0 -0 -0 -0 -0 -0 -0 -0 -0 -0 -0 -0 -0 -0 -0 -0 -0 -0 -42 -101 -143 -110 -128 -136 -174 -177 -225 -222 -210 -187 -170 -155
-0 -0 -0 -0 -0 -0 -0 -0 -0 -0 -0 -0 -0 -0 -0 -0 -0 -0 -0 -0 -0 -0 -0 -0 -0 -0 -0 -0 -0 -0 -5 -75 -21 -136 -145 -87 -80 -134 -196 -228 -257 -278 -252 -234 -214
-0 -0 -0 -0 -0 -0 -0 -0 -0 -0 -0 -0 -0 -0 -0 -0 -0 -0 -0 -0 -0 -0 -0 -0 -0 -0 -0 -0 -0 -0 -0 -86 -73 -52 -0 -98 -26 -71 -141 -178 -256 -278 -331 -305 -302
-0 -0 -0 -0 -0 -0 -0 -0 -0 -0 -0 -0 -0 -0 -0 -0 -0 -0 -0 -0 -0 -0 -0 -0 -0 -0 -0 -0 -0 -0 -0 -0 -74 -36 -37 -95 -19 -0 -170 -143 -157 -259 -274 -300 -282
-0 -0 -0 -0 -0 -0 -0 -0 -0 -0 -0 -0 -0 -0 -0 -0 -0 -0 -0 -0 -0 -0 -0 -0 -0 -0 -0 -0 -0 -0 -0 -0 -0 -59 -0 -0 -0 -0 -0 -76 -75 -160 -305 -326 -303
-0 -0 -0 -0 -0 -0 -0 -0 -0 -0 -0 -0 -0 -0 -0 -0 -0 -0 -0 -0 -0 -0 -0 -0 -0 -0 -0 -0 -0 -0 -0 -0 -0 -0 -0 -0 -0 -0 -0 -69 -84 -75 -189 -251 -273
-0 -0 -0 -0 -0 -0 -0 -0 -0 -0 -0 -0 -0 -0 -0 -0 -0 -0 -0 -0 -0 -0 -0 -0 -0 -0 -0 -0 -0 -0 -0 -0 -0 -0 -0 -0 -0 -0 -0 -72 -177 -144 -165 -235 -265
-0 -0 -0 -0 -0 -0 -0 -0 -0 -0 -0 -0 -0 -0 -0 -0 -0 -0 -0 -0 -0 -0 -0 -0 -0 -0 -0 -0 -0 -0 -0 -0 -0 -0 -0 -0 -0 -0 -0 -0 -0 -150 -165 -192 -248
-0 -0 -0 -0 -0 -0 -0 -0 -0 -0 -0 -0 -0 -0 -0 -0 -0 -0 -0 -0 -0 -0 -0 -0 -0 -0 -0 -0 -0 -0 -0 -0 -0 -0 -0 -0 -0 -0 -0 -0 -0 -0 -100 -138 -211
-0 -0 -0 -0 -0 -0 -0 -0 -0 -0 -0 -0 -0 -0 -0 -0 -0 -0 -0 -0 -0 -0 -0 -0 -0 -0 -0 -0 -0 -0 -0 -0 -0 -0 -0 -0 -0 -0 -0 -0 -0 -0 -0 -112 -205
-0 -0 -0 -0 -0 -0 -0 -0 -0 -0 -0 -0 -0 -0 -0 -0 -0 -0 -0 -0 -0 -0 -0 -0 -0 -0 -0 -0 -0 -0 -0 -0 -0 -0 -0 -0 -0 -0 -0 -0 -0 -0 -0 -0 -210
-0 -0 -0 -0 -0 -0 -0 -0 -0 -0 -0 -0 -0 -0 -0 -0 -0 -0 -0 -0 -0 -0 -0 -0 -0 -0 -0 -0 -0 -0 -0 -0 -0 -0 -0 -0 -0 -0 -0 -0 -0 -0 -0 -0 -0
-0 -0 -0 -0 -0 -0 -0 -0 -0 -0 -0 -0 -0 -0 -0 -0 -0 -0 -0 -0 -0 -0 -0 -0 -0 -0 -0 -0 -0 -0 -0 -0 -0 -0 -0 -0 -0 -0 -0 -0 -0 -0 -0 -0 -38
-0 -0 -0 -0 -0 -0 -0 -0 -0 -0 -0 -0 -0 -0 -0 -0 -0 -0 -0 -0 -0 -0 -0 -0 -0 -0 -0 -0 -0 -0 -0 -0 -0 -0 -0 -0 -0 -0 -0 -0 -0 -0 -0 -106 -241
-0 -0 -0 -0 -0 -0 -0 -0 -0 -0 -0 -0 -0 -0 -0 -0 -0 -0 -0 -0 -0 -0 -141 -0 -0 -0 -0 -0 -0 -0 -0 -0 -0 -0 -0 -0 -0 -0 -0 -0 -0 -0 -40 -47 -170
-0 -0 -1 -0 -0 -0 -0 -0 -0 -0 -0 -0 -0 -0 -0 -0 -0 -0 -0 -0 -0 -87 -84 -62 -43 -0 -0 -0 -0 -0 -0 -0 -0 -0 -0 -0 -0 -0 -0 -0 -0 -0 -0 -39 -105
Wind_Speed
30 30 30 31 31 31 31 31 32 31 30 29 29 29 29 30 29 22 28 19 19 9 9 10 20 9 17 21 20 17 15 18 17 16 11 23 22 21 20 23 22 25 23 26 31
32 32 32 31 31 31 32 32 32 32 32 31 30 29 28 29 28 23 23 29 24 10 15 4 19 25 22 20 20 21 18 18 15 17 16 20 22 23 19 25 23 23 25 27 31
33 33 33 33 33 32 32 32 33 33 33 33 31 30 28 27 21 6 16 9 9 20 30 30 27 28 26 23 22 13 18 17 16 17 18 19 22 23 22 25 24 26 27 30 31
35 34 34 34 34 34 34 34 32 33 34 34 32 31 28 22 15 9 14 18 4 13 24 27 7 13 27 25 6 15 20 19 18 18 18 19 23 22 23 21 23 25 28 30 30
35 36 35 34 35 35 35 34 34 33 32 33 33 30 25 21 13 25 23 18 10 19 19 12 14 15 27 18 8 18 23 20 21 17 20 19 23 23 24 21 22 25 29 29 31
36 36 36 36 35 35 36 35 35 34 34 33 30 24 23 31 18 15 15 12 11 12 19 16 12 18 26 24 16 12 17 14 18 17 16 19 24 24 23 23 24 26 30 30 31
37 37 37 37 38 37 35 34 36 35 33 31 18 18 25 34 21 22 23 21 8 7 18 18 24 10 15 25 15 9 14 9 5 9 6 15 15 25 23 25 26 27 30 30 30
37 38 39 39 39 39 39 35 33 33 28 19 12 18 27 22 21 23 19 16 8 19 11 17 18 17 23 16 16 17 10 2 6 8 3 24 22 26 25 26 26 27 29 29 29
38 39 40 40 41 41 40 38 33 21 17 14 17 19 27 20 19 17 14 12 9 13 15 15 9 22 21 15 11 22 24 27 3 26 8 28 21 24 25 25 26 27 28 29 29
40 40 40 41 41 41 40 33 19 18 16 15 18 20 18 17 16 20 14 9 10 7 8 8 12 11 27 13 29 20 26 27 21 11 23 29 22 17 25 26 26 25 27 28 29
41 41 41 42 42 41 33 23 23 21 18 19 20 19 22 18 21 15 12 14 11 11 14 13 12 29 22 25 24 32 33 33 22 12 15 30 28 24 23 26 26 26 26 27 28
42 42 42 42 41 35 25 22 21 22 31 21 13 16 15 22 22 15 15 18 19 20 17 19 24 15 26 28 23 25 32 23 20 11 17 21 31 27 26 26 25 24 25 25 25
43 42 42 43 40 21 26 16 22 24 27 27 18 19 17 4 16 18 12 19 23 24 23 26 25 19 21 24 14 13 23 17 14 16 17 15 32 30 29 23 24 24 23 23 22
43 43 42 43 23 30 22 15 28 20 27 23 17 14 13 12 19 12 13 17 24 29 25 29 28 21 21 22 20 13 19 18 14 10 35 22 31 28 22 11 17 23 21 21 19
44 44 41 35 29 26 20 25 24 17 29 16 13 13 14 15 20 13 12 18 25 26 27 29 27 27 26 19 25 24 18 15 16 15 26 29 32 33 8 15 13 15 19 18 17
45 45 42 28 24 21 24 24 15 21 26 18 12 13 18 17 17 12 9 16 19 25 29 34 24 29 28 25 23 23 16 17 19 21 33 20 10 33 10 10 19 14 18 20 18
48 47 42 26 23 20 24 19 20 23 18 18 15 14 23 19 18 12 10 17 22 29 35 35 36 30 28 28 27 27 22 24 27 28 38 26 31 35 18 10 18 13 16 20 20
51 48 30 24 21 22 18 16 26 22 19 17 16 20 22 19 18 15 12 17 21 25 29 39 44 39 31 34 30 27 24 28 28 30 35 26 30 28 34 36 29 9 5 12 23
48 35 30 23 17 16 16 26 26 23 20 22 25 27 25 20 20 17 17 17 17 23 31 33 42 31 37 31 28 31 38 29 34 27 32 32 32 34 31 29 13 8 6 13 20
41 34 28 24 14 15 22 31 26 22 22 22 25 22 22 21 21 18 19 18 16 18 23 27 34 36 31 33 33 35 29 36 37 45 46 34 32 26 21 23 14 8 8 13 17
33 33 26 19 14 20 31 31 30 27 27 26 27 27 25 23 21 22 21 21 15 13 22 26 32 30 34 42 45 36 37 35 35 40 46 48 46 33 34 33 28 28 8 9 12
31 33 22 17 24 25 31 28 28 29 32 32 29 28 28 27 28 26 26 22 16 9 17 26 29 40 41 31 42 47 46 43 46 42 39 43 42 20 31 32 29 33 28 21 9
33 29 23 22 31 31 31 31 31 31 30 28 32 32 28 30 31 31 31 25 19 16 15 17 28 36 40 41 41 40 48 48 47 45 48 48 42 27 30 31 25 28 32 29 16
28 31 24 21 25 29 32 34 33 30 35 31 30 28 29 30 29 29 27 23 21 21 22 19 29 37 46 48 43 45 41 41 47 53 48 50 46 35 34 34 37 18 36 22 11
23 27 24 28 25 30 30 31 34 33 28 29 32 34 32 35 36 38 37 37 33 28 22 21 31 36 44 46 40 46 46 43 42 49 49 47 43 34 29 36 17 12 27 21 10
28 27 27 30 32 31 29 31 33 32 31 32 33 33 34 38 37 35 36 34 33 22 21 17 24 28 42 40 40 45 46 45 44 46 47 46 40 32 36 34 36 31 24 13 12
23 25 27 30 28 29 29 29 28 30 32 34 34 35 38 37 34 36 38 38 31 25 24 23 24 27 36 35 39 48 47 44 43 41 41 45 40 35 37 37 38 36 25 17 12
Wind_Direction
320 319 317 318 317 316 313 309 306 302 297 291 289 287 284 284 275 288 228 203 189 145 273 265 240 303 247 208 202 206 192 108 97 78 34 123 153 156 164 112 165 158 152 126 131
321 318 317 315 313 310 310 309 307 302 300 294 290 289 284 287 280 234 221 258 186 150 250 235 243 201 208 212 210 162 129 115 170 128 95 112 127 124 176 132 159 167 127 120 130
321 321 318 315 312 309 304 301 304 304 299 297 291 291 287 291 320 76 295 344 274 161 232 232 229 205 209 212 212 282 208 222 229 126 114 113 131 145 162 154 156 144 127 130 135
324 321 316 315 312 308 305 302 296 297 302 297 294 293 291 314 328 20 307 301 132 161 237 232 231 233 184 180 351 161 230 202 217 136 120 126 133 149 151 163 147 140 134 135 140
322 323 317 309 307 308 302 297 297 292 291 297 297 298 305 311 195 290 288 291 290 159 172 174 163 156 174 213 312 182 238 211 204 133 136 121 146 157 165 171 142 134 140 143 150
322 318 314 311 305 300 299 296 293 290 289 288 303 310 305 285 305 306 312 321 291 156 168 223 187 246 242 243 269 313 306 320 173 119 112 118 158 166 165 156 136 138 147 149 155
317 318 313 311 310 303 293 290 291 288 285 310 340 330 298 274 295 289 283 285 292 167 163 225 243 240 262 243 277 320 308 340 23 81 282 105 159 175 167 150 145 145 152 156 163
314 312 313 308 308 304 297 289 284 283 321 344 3 335 300 303 293 285 281 281 280 254 225 232 245 250 248 259 266 272 312 69 290 92 286 148 168 176 159 155 155 152 158 162 166
320 317 314 311 308 305 297 292 300 345 354 8 346 333 305 310 292 291 283 276 272 253 241 243 245 245 246 248 269 247 181 181 280 210 265 172 205 180 160 163 162 162 163 168 169
322 321 318 312 308 304 300 315 344 347 352 351 337 320 315 317 300 290 279 262 264 236 227 229 240 230 237 173 175 163 234 222 233 244 231 187 220 223 171 171 170 166 170 172 175
320 318 317 314 313 309 323 339 329 330 334 324 322 320 308 316 303 289 282 255 258 242 233 235 208 177 170 237 248 226 225 183 242 260 257 206 219 236 186 183 177 175 174 176 180
320 320 318 313 311 311 339 334 334 330 311 319 303 303 302 301 289 278 272 257 248 243 243 244 191 222 239 240 249 247 188 177 249 264 260 264 222 249 206 188 179 174 176 179 181
319 320 322 314 308 343 333 347 338 332 319 318 326 320 319 301 283 270 254 254 248 243 241 244 249 240 238 242 235 250 177 173 254 255 272 286 224 229 245 187 186 186 181 180 180
320 318 323 319 337 328 331 337 327 339 318 319 323 330 339 335 305 256 242 254 252 243 245 250 246 233 234 237 240 226 256 251 245 248 212 265 223 241 197 183 184 187 181 178 175
318 317 320 324 322 321 327 324 325 336 308 337 332 340 336 318 316 303 235 253 247 245 243 246 242 241 234 219 240 251 258 254 250 246 264 260 248 241 302 187 198 195 188 184 178
315 314 315 324 321 319 317 320 330 309 299 317 329 323 326 315 312 323 236 261 254 247 249 246 253 244 244 240 237 243 254 264 261 257 252 212 207 250 290 204 199 200 193 190 185
312 310 309 313 314 317 314 312 298 290 313 306 304 307 313 311 301 296 245 242 245 241 243 245 243 248 244 239 240 240 241 252 252 253 241 264 252 244 290 194 198 198 198 194 191
309 307 316 309 309 302 302 291 280 295 279 307 304 300 301 310 297 282 265 243 247 244 247 242 241 239 240 238 237 231 229 247 250 255 257 267 263 270 252 235 272 292 266 197 194
311 315 310 311 305 295 279 270 279 278 292 286 287 284 288 296 294 277 272 254 237 236 247 247 246 247 242 242 232 237 241 249 257 266 260 257 261 266 266 271 294 202 229 192 188
316 312 308 308 303 282 270 266 277 277 282 281 279 283 283 281 286 283 269 273 264 238 247 254 253 243 245 240 243 244 243 246 250 250 251 259 262 269 279 279 289 283 203 200 198
317 308 310 308 296 276 269 273 273 274 270 275 274 273 273 274 279 280 280 278 273 244 248 252 252 251 242 239 238 242 242 248 254 253 253 254 253 260 261 261 275 275 258 233 207
315 301 309 301 284 280 273 277 277 273 265 267 271 267 266 268 270 275 272 271 279 267 252 254 259 251 248 253 248 246 246 246 248 251 258 259 257 275 261 261 273 277 281 289 236
312 305 302 288 280 276 279 278 274 270 266 264 262 261 264 264 267 268 268 269 270 280 266 259 260 255 253 252 250 249 245 247 251 255 252 254 257 272 272 269 278 288 263 277 274
312 300 301 291 283 281 279 275 271 272 262 262 262 261 260 261 261 267 267 271 269 269 268 274 267 259 254 253 252 249 249 249 247 250 253 255 258 264 269 273 267 293 261 288 264
309 299 300 289 285 283 279 274 270 267 266 262 258 255 257 259 259 258 259 260 263 270 278 272 270 265 260 259 252 249 249 249 250 251 253 258 259 264 269 269 233 269 275 281 255
300 297 297 290 286 282 277 271 266 265 262 259 257 256 258 257 257 260 256 256 259 267 265 280 279 281 263 260 254 249 248 250 251 252 255 257 259 262 264 269 270 271 272 271 244
304 297 291 285 285 280 274 271 268 271 263 259 261 259 257 260 264 263 260 255 259 264 263 271 280 281 268 267 257 251 248 249 250 253 250 252 258 262 263 265 266 264 270 265 243